Time,TemperatureF,DewpointF,PressureIn,WindDirection,WindDirectionDegrees,WindSpeedMPH,WindSpeedGustMPH,Humidity,HourlyPrecipIn,Conditions,Clouds,dailyrainin,SoftwareType,DateUTC
2013-01-22 00:02:00,29.0,11.0,-100.00,NNW,335,3.0,7.0,47,0.00,,,0.00,,2013-01-22 07:02:00,
2013-01-22 00:12:00,29.0,11.0,-100.00,NNW,335,3.0,7.0,47,0.00,,,0.00,,2013-01-22 07:12:00,
2013-01-22 00:22:00,29.0,11.0,-100.00,NNW,335,3.0,7.0,47,0.00,,,0.00,,2013-01-22 07:22:00,
2013-01-22 00:32:00,29.0,11.0,-100.00,NNW,335,3.0,7.0,47,0.00,,,0.00,,2013-01-22 07:32:00,
2013-01-22 00:40:00,28.0,12.0,-100.00,NNW,330,4.0,9.0,50,0.00,,,0.00,,2013-01-22 07:40:00,
2013-01-22 01:02:00,28.0,12.0,-100.00,NNW,330,4.0,9.0,50,0.00,,,0.00,,2013-01-22 08:02:00,
2013-01-22 01:12:00,28.0,12.0,-100.00,NNW,330,4.0,9.0,50,0.00,,,0.00,,2013-01-22 08:12:00,
2013-01-22 01:22:00,28.0,12.0,-100.00,NNW,330,4.0,9.0,50,0.00,,,0.00,,2013-01-22 08:22:00,
2013-01-22 01:32:00,28.0,12.0,-100.00,NNW,330,4.0,9.0,50,0.00,,,0.00,,2013-01-22 08:32:00,
2013-01-22 01:40:00,27.0,12.0,-100.00,SSW,204,2.0,11.0,52,0.00,,,0.00,,2013-01-22 08:40:00,
2013-01-22 02:02:00,27.0,12.0,-100.00,SSW,204,2.0,11.0,52,0.00,,,0.00,,2013-01-22 09:02:00,
2013-01-22 02:12:00,27.0,12.0,-100.00,SSW,204,2.0,11.0,52,0.00,,,0.00,,2013-01-22 09:12:00,
2013-01-22 02:22:00,27.0,12.0,-100.00,SSW,204,2.0,11.0,52,0.00,,,0.00,,2013-01-22 09:22:00,
2013-01-22 02:32:00,27.0,12.0,-100.00,SSW,204,2.0,11.0,52,0.00,,,0.00,,2013-01-22 09:32:00,
2013-01-22 02:40:00,27.0,12.0,-100.00,NNW,340,10.0,15.0,52,0.00,,,0.00,,2013-01-22 09:40:00,
2013-01-22 03:02:00,27.0,12.0,-100.00,NNW,340,10.0,15.0,52,0.00,,,0.00,,2013-01-22 10:02:00,
2013-01-22 03:12:00,27.0,12.0,-100.00,NNW,340,10.0,15.0,52,0.00,,,0.00,,2013-01-22 10:12:00,
2013-01-22 03:22:00,27.0,12.0,-100.00,NNW,340,10.0,15.0,52,0.00,,,0.00,,2013-01-22 10:22:00,
2013-01-22 03:32:00,27.0,12.0,-100.00,NNW,340,10.0,15.0,52,0.00,,,0.00,,2013-01-22 10:32:00,
2013-01-22 03:40:00,31.0,12.0,-100.00,NNW,336,8.0,16.0,44,0.00,,,0.00,,2013-01-22 10:40:00,
2013-01-22 04:02:00,31.0,12.0,-100.00,NNW,336,8.0,16.0,44,0.00,,,0.00,,2013-01-22 11:02:00,
2013-01-22 04:12:00,31.0,12.0,-100.00,NNW,336,8.0,16.0,44,0.00,,,0.00,,2013-01-22 11:12:00,
2013-01-22 04:22:00,31.0,12.0,-100.00,NNW,336,8.0,16.0,44,0.00,,,0.00,,2013-01-22 11:22:00,
2013-01-22 04:33:00,31.0,12.0,-100.00,NNW,336,8.0,16.0,44,0.00,,,0.00,,2013-01-22 11:33:00,
2013-01-22 04:40:00,31.0,11.0,-100.00,NNW,336,9.0,17.0,43,0.00,,,0.00,,2013-01-22 11:40:00,
2013-01-22 05:04:00,31.0,11.0,-100.00,NNW,336,9.0,17.0,43,0.00,,,0.00,,2013-01-22 12:04:00,
2013-01-22 05:13:00,31.0,11.0,-100.00,NNW,336,9.0,17.0,43,0.00,,,0.00,,2013-01-22 12:13:00,
2013-01-22 05:23:00,31.0,11.0,-100.00,NNW,336,9.0,17.0,43,0.00,,,0.00,,2013-01-22 12:23:00,
2013-01-22 05:33:00,31.0,11.0,-100.00,NNW,336,9.0,17.0,43,0.00,,,0.00,,2013-01-22 12:33:00,
2013-01-22 05:40:00,32.0,9.0,-100.00,NNE,32,2.0,15.0,38,0.00,,,0.00,,2013-01-22 12:40:00,
2013-01-22 06:04:00,32.0,9.0,-100.00,NNE,32,2.0,15.0,38,0.00,,,0.00,,2013-01-22 13:04:00,
2013-01-22 06:13:00,32.0,9.0,-100.00,NNE,32,2.0,15.0,38,0.00,,,0.00,,2013-01-22 13:13:00,
2013-01-22 06:23:00,32.0,9.0,-100.00,NNE,32,2.0,15.0,38,0.00,,,0.00,,2013-01-22 13:23:00,
2013-01-22 06:33:00,32.0,9.0,-100.00,NNE,32,2.0,15.0,38,0.00,,,0.00,,2013-01-22 13:33:00,
2013-01-22 06:40:00,30.0,9.0,-100.00,NW,317,3.0,6.0,41,0.00,,,0.00,,2013-01-22 13:40:00,
2013-01-22 07:03:00,30.0,9.0,-100.00,NW,317,3.0,6.0,41,0.00,,,0.00,,2013-01-22 14:03:00,
2013-01-22 07:13:00,30.0,9.0,-100.00,NW,317,3.0,6.0,41,0.00,,,0.00,,2013-01-22 14:13:00,
2013-01-22 07:23:00,30.0,9.0,-100.00,NW,317,3.0,6.0,41,0.00,,,0.00,,2013-01-22 14:23:00,
2013-01-22 07:34:00,30.0,9.0,-100.00,NW,317,3.0,6.0,41,0.00,,,0.00,,2013-01-22 14:34:00,
2013-01-22 07:40:00,27.0,9.0,-100.00,North,353,3.0,7.0,46,0.00,,,0.00,,2013-01-22 14:40:00,
2013-01-22 08:03:00,27.0,9.0,-100.00,North,353,3.0,7.0,46,0.00,,,0.00,,2013-01-22 15:03:00,
2013-01-22 08:13:00,27.0,9.0,-100.00,North,353,3.0,7.0,46,0.00,,,0.00,,2013-01-22 15:13:00,
2013-01-22 08:23:00,27.0,9.0,-100.00,North,353,3.0,7.0,46,0.00,,,0.00,,2013-01-22 15:23:00,
2013-01-22 08:34:00,27.0,9.0,-100.00,North,353,3.0,7.0,46,0.00,,,0.00,,2013-01-22 15:34:00,
2013-01-22 08:40:00,30.0,9.0,-100.00,North,352,7.0,13.0,41,0.00,,,0.00,,2013-01-22 15:40:00,
2013-01-22 09:03:00,30.0,9.0,-100.00,North,352,7.0,13.0,41,0.00,,,0.00,,2013-01-22 16:03:00,
2013-01-22 09:13:00,30.0,9.0,-100.00,North,352,7.0,13.0,41,0.00,,,0.00,,2013-01-22 16:13:00,
2013-01-22 09:23:00,30.0,9.0,-100.00,North,352,7.0,13.0,41,0.00,,,0.00,,2013-01-22 16:23:00,
2013-01-22 09:33:00,30.0,9.0,-100.00,North,352,7.0,13.0,41,0.00,,,0.00,,2013-01-22 16:33:00,
2013-01-22 09:40:00,40.0,12.0,-100.00,NE,43,3.0,15.0,31,0.00,,,0.00,,2013-01-22 16:40:00,
2013-01-22 10:03:00,40.0,12.0,-100.00,NE,43,3.0,15.0,31,0.00,,,0.00,,2013-01-22 17:03:00,
2013-01-22 10:13:00,40.0,12.0,-100.00,NE,43,3.0,15.0,31,0.00,,,0.00,,2013-01-22 17:13:00,
2013-01-22 10:23:00,40.0,12.0,-100.00,NE,43,3.0,15.0,31,0.00,,,0.00,,2013-01-22 17:23:00,
2013-01-22 10:34:00,40.0,12.0,-100.00,NE,43,3.0,15.0,31,0.00,,,0.00,,2013-01-22 17:34:00,
2013-01-22 10:40:00,42.0,13.0,-100.00,North,356,5.0,10.0,30,0.00,,,0.00,,2013-01-22 17:40:00,
2013-01-22 11:04:00,42.0,13.0,-100.00,North,356,5.0,10.0,30,0.00,,,0.00,,2013-01-22 18:04:00,
2013-01-22 11:13:00,42.0,13.0,-100.00,North,356,5.0,10.0,30,0.00,,,0.00,,2013-01-22 18:13:00,
2013-01-22 11:23:00,42.0,13.0,-100.00,North,356,5.0,10.0,30,0.00,,,0.00,,2013-01-22 18:23:00,
2013-01-22 11:33:00,42.0,13.0,-100.00,North,356,5.0,10.0,30,0.00,,,0.00,,2013-01-22 18:33:00,
2013-01-22 11:40:00,44.0,15.0,-100.00,NNW,344,5.0,12.0,31,0.00,,,0.00,,2013-01-22 18:40:00,
2013-01-22 12:03:00,44.0,15.0,-100.00,NNW,344,5.0,12.0,31,0.00,,,0.00,,2013-01-22 19:03:00,
2013-01-22 12:13:00,44.0,15.0,-100.00,NNW,344,5.0,12.0,31,0.00,,,0.00,,2013-01-22 19:13:00,
2013-01-22 12:23:00,44.0,15.0,-100.00,NNW,344,5.0,12.0,31,0.00,,,0.00,,2013-01-22 19:23:00,
2013-01-22 12:33:00,44.0,15.0,-100.00,NNW,344,5.0,12.0,31,0.00,,,0.00,,2013-01-22 19:33:00,
2013-01-22 12:40:00,48.0,16.0,-100.00,WNW,302,3.0,14.0,27,0.00,,,0.00,,2013-01-22 19:40:00,
2013-01-22 13:03:00,48.0,16.0,-100.00,WNW,302,3.0,14.0,27,0.00,,,0.00,,2013-01-22 20:03:00,
2013-01-22 13:13:00,48.0,16.0,-100.00,WNW,302,3.0,14.0,27,0.00,,,0.00,,2013-01-22 20:13:00,
2013-01-22 13:23:00,48.0,16.0,-100.00,WNW,302,3.0,14.0,27,0.00,,,0.00,,2013-01-22 20:23:00,
2013-01-22 13:33:00,48.0,16.0,-100.00,WNW,302,3.0,14.0,27,0.00,,,0.00,,2013-01-22 20:33:00,
2013-01-22 13:40:00,49.0,15.0,-100.00,North,349,7.0,15.0,25,0.00,,,0.00,,2013-01-22 20:40:00,
2013-01-22 14:03:00,49.0,15.0,-100.00,North,349,7.0,15.0,25,0.00,,,0.00,,2013-01-22 21:03:00,
2013-01-22 14:13:00,49.0,15.0,-100.00,North,349,7.0,15.0,25,0.00,,,0.00,,2013-01-22 21:13:00,
2013-01-22 14:23:00,49.0,15.0,-100.00,North,349,7.0,15.0,25,0.00,,,0.00,,2013-01-22 21:23:00,
2013-01-22 14:33:00,49.0,15.0,-100.00,North,349,7.0,15.0,25,0.00,,,0.00,,2013-01-22 21:33:00,
2013-01-22 14:40:00,52.0,14.0,-100.00,NNE,26,4.0,15.0,22,0.00,,,0.00,,2013-01-22 21:40:00,
2013-01-22 15:03:00,52.0,14.0,-100.00,NNE,26,4.0,15.0,22,0.00,,,0.00,,2013-01-22 22:03:00,
2013-01-22 15:13:00,52.0,14.0,-100.00,NNE,26,4.0,15.0,22,0.00,,,0.00,,2013-01-22 22:13:00,
2013-01-22 15:22:00,52.0,14.0,-100.00,NNE,26,4.0,15.0,22,0.00,,,0.00,,2013-01-22 22:22:00,
2013-01-22 15:32:00,52.0,14.0,-100.00,NNE,26,4.0,15.0,22,0.00,,,0.00,,2013-01-22 22:32:00,
2013-01-22 15:40:00,56.0,14.0,-100.00,East,85,2.0,9.0,19,0.00,,,0.00,,2013-01-22 22:40:00,
2013-01-22 16:03:00,56.0,14.0,-100.00,East,85,2.0,9.0,19,0.00,,,0.00,,2013-01-22 23:03:00,
2013-01-22 16:12:00,56.0,14.0,-100.00,East,85,2.0,9.0,19,0.00,,,0.00,,2013-01-22 23:12:00,
2013-01-22 16:24:00,56.0,14.0,-100.00,East,85,2.0,9.0,19,0.00,,,0.00,,2013-01-22 23:24:00,
2013-01-22 16:33:00,56.0,14.0,-100.00,East,85,2.0,9.0,19,0.00,,,0.00,,2013-01-22 23:33:00,
2013-01-22 16:40:00,50.0,12.0,-100.00,North,354,3.0,9.0,21,0.00,,,0.00,,2013-01-22 23:40:00,
2013-01-22 17:03:00,50.0,12.0,-100.00,North,354,3.0,9.0,21,0.00,,,0.00,,2013-01-23 00:03:00,
2013-01-22 17:12:00,50.0,12.0,-100.00,North,354,3.0,9.0,21,0.00,,,0.00,,2013-01-23 00:12:00,
2013-01-22 17:23:00,50.0,12.0,-100.00,North,354,3.0,9.0,21,0.00,,,0.00,,2013-01-23 00:23:00,
2013-01-22 17:33:00,50.0,12.0,-100.00,North,354,3.0,9.0,21,0.00,,,0.00,,2013-01-23 00:33:00,
2013-01-22 17:40:00,40.0,13.0,-100.00,NW,305,2.0,6.0,32,0.00,,,0.00,,2013-01-23 00:40:00,
2013-01-22 18:03:00,40.0,13.0,-100.00,NW,305,2.0,6.0,32,0.00,,,0.00,,2013-01-23 01:03:00,
2013-01-22 18:13:00,40.0,13.0,-100.00,NW,305,2.0,6.0,32,0.00,,,0.00,,2013-01-23 01:13:00,
2013-01-22 18:23:00,40.0,13.0,-100.00,NW,305,2.0,6.0,32,0.00,,,0.00,,2013-01-23 01:23:00,
2013-01-22 18:33:00,40.0,13.0,-100.00,NW,305,2.0,6.0,32,0.00,,,0.00,,2013-01-23 01:33:00,
2013-01-22 18:40:00,35.0,12.0,-100.00,WNW,295,2.0,3.0,38,0.00,,,0.00,,2013-01-23 01:40:00,
2013-01-22 19:03:00,35.0,12.0,-100.00,WNW,295,2.0,3.0,38,0.00,,,0.00,,2013-01-23 02:03:00,
2013-01-22 19:12:00,35.0,12.0,-100.00,WNW,295,2.0,3.0,38,0.00,,,0.00,,2013-01-23 02:12:00,
2013-01-22 19:23:00,35.0,12.0,-100.00,WNW,295,2.0,3.0,38,0.00,,,0.00,,2013-01-23 02:23:00,
2013-01-22 19:33:00,35.0,12.0,-100.00,WNW,295,2.0,3.0,38,0.00,,,0.00,,2013-01-23 02:33:00,
2013-01-22 19:40:00,37.0,13.0,-100.00,NW,308,2.0,5.0,37,0.00,,,0.00,,2013-01-23 02:40:00,
2013-01-22 20:03:00,37.0,13.0,-100.00,NW,308,2.0,5.0,37,0.00,,,0.00,,2013-01-23 03:03:00,
2013-01-22 20:13:00,37.0,13.0,-100.00,NW,308,2.0,5.0,37,0.00,,,0.00,,2013-01-23 03:13:00,
2013-01-22 20:23:00,37.0,13.0,-100.00,NW,308,2.0,5.0,37,0.00,,,0.00,,2013-01-23 03:23:00,
2013-01-22 20:33:00,37.0,13.0,-100.00,NW,308,2.0,5.0,37,0.00,,,0.00,,2013-01-23 03:33:00,
2013-01-22 20:40:00,38.0,13.0,-100.00,NNW,333,4.0,10.0,35,0.00,,,0.00,,2013-01-23 03:40:00,
2013-01-22 21:03:00,38.0,13.0,-100.00,NNW,333,4.0,10.0,35,0.00,,,0.00,,2013-01-23 04:03:00,
2013-01-22 21:12:00,38.0,13.0,-100.00,NNW,333,4.0,10.0,35,0.00,,,0.00,,2013-01-23 04:12:00,
2013-01-22 21:23:00,38.0,13.0,-100.00,NNW,333,4.0,10.0,35,0.00,,,0.00,,2013-01-23 04:23:00,
2013-01-22 21:33:00,38.0,13.0,-100.00,NNW,333,4.0,10.0,35,0.00,,,0.00,,2013-01-23 04:33:00,
2013-01-22 21:40:00,35.0,13.0,-100.00,NNW,338,4.0,8.0,40,0.00,,,0.00,,2013-01-23 04:40:00,
2013-01-22 22:03:00,35.0,13.0,-100.00,NNW,338,4.0,8.0,40,0.00,,,0.00,,2013-01-23 05:03:00,
2013-01-22 22:12:00,35.0,13.0,-100.00,NNW,338,4.0,8.0,40,0.00,,,0.00,,2013-01-23 05:12:00,
2013-01-22 22:22:00,35.0,13.0,-100.00,NNW,338,4.0,8.0,40,0.00,,,0.00,,2013-01-23 05:22:00,
2013-01-22 22:33:00,35.0,13.0,-100.00,NNW,338,4.0,8.0,40,0.00,,,0.00,,2013-01-23 05:33:00,
2013-01-22 22:40:00,34.0,13.0,-100.00,NNW,338,6.0,12.0,42,0.00,,,0.00,,2013-01-23 05:40:00,
2013-01-22 23:02:00,34.0,13.0,-100.00,NNW,338,6.0,12.0,42,0.00,,,0.00,,2013-01-23 06:02:00,
2013-01-22 23:12:00,34.0,13.0,-100.00,NNW,338,6.0,12.0,42,0.00,,,0.00,,2013-01-23 06:12:00,
2013-01-22 23:22:00,34.0,13.0,-100.00,NNW,338,6.0,12.0,42,0.00,,,0.00,,2013-01-23 06:22:00,
2013-01-22 23:32:00,34.0,13.0,-100.00,NNW,338,6.0,12.0,42,0.00,,,0.00,,2013-01-23 06:32:00,
2013-01-22 23:40:00,32.0,12.0,-100.00,NNW,343,6.0,12.0,42,0.00,,,0.00,,2013-01-23 06:40:00,